Stations météo

réclame
Mon MeteoGroup
Bolzano, Italie (16020): Température de l'air & dewpoint: 17.05.2018 19:00:00 - 23.05.2018 19:00:00 (CEST)Bolzano, Italie (16020): Vitesse du vent: 17.05.2018 19:00:00 - 23.05.2018 19:00:00 (CEST)Bolzano, Italie (16020): Direction du vent: 17.05.2018 19:00:00 - 23.05.2018 19:00:00 (CEST)Bolzano, Italie (16020): reduced air pressure: 17.05.2018 19:00:00 - 23.05.2018 19:00:00 (CEST)Bolzano, Italie (16020): visibility: 17.05.2018 19:00:00 - 23.05.2018 19:00:00 (CEST)Bolzano, Italie (16020): Quantités de précipitations: 17.05.2018 19:00:00 - 23.05.2018 19:00:00 (CEST)
Date & Time tt [°C] td [°C] ff [km/h] ff [knt] dd ppp [hPa] vv [km] rr [mm]
23.05.2018 19:00:00 - - - - - - - -
23.05.2018 18:00:00 19,0 15,0 4 2 - - 10 -
23.05.2018 17:00:00 18,3 16,1 11 6 SSW 1016,6 10 -
23.05.2018 16:00:00 22,0 15,0 5 3 - - 10 -
23.05.2018 15:00:00 23,0 14,0 4 2 - - 10 -
23.05.2018 14:00:00 20,7 14,4 8 4 S 1015,3 10 -
23.05.2018 13:00:00 24,0 13,0 8 4 S - 10 -
23.05.2018 12:00:00 23,0 13,0 4 2 - - 10 -
23.05.2018 11:00:00 22,4 11,4 5 3 SSE 1015,7 25 -
23.05.2018 10:00:00 19,0 13,0 0 0 N - 10 -
23.05.2018 09:00:00 18,0 14,0 2 1 - - 10 -
23.05.2018 08:00:00 16,4 12,8 0 0 N 1017,7 10 0,0
23.05.2018 07:00:00 14,0 13,0 0 0 N - 10 -
23.05.2018 06:00:00 14,0 13,0 0 0 N - 10 -
23.05.2018 05:00:00 14,1 13,8 2 1 NNW 1017,1 - -
23.05.2018 04:00:00 - - - - - - - -
23.05.2018 03:00:00 - - - - - - - -
23.05.2018 02:00:00 13,7 13,6 2 1 NNE 1017,1 - 0,0
23.05.2018 01:00:00 - - - - - - - -
23.05.2018 00:00:00 - - - - - - - -
22.05.2018 23:00:00 15,8 14,7 2 1 - 1016,6 10 -
22.05.2018 22:00:00 17,0 14,0 2 1 - - 10 -
22.05.2018 21:00:00 18,0 14,0 4 2 - - 10 -
22.05.2018 20:00:00 18,1 13,9 4 2 SSE 1014,4 10 0,0
22.05.2018 19:00:00 19,0 13,0 2 1 - - 10 -
22.05.2018 18:00:00 19,0 17,0 2 1 - - 10 -
22.05.2018 17:00:00 19,0 11,7 5 3 - 1014,2 10 -
22.05.2018 16:00:00 19,0 12,0 5 3 - - 10 -
22.05.2018 15:00:00 19,0 13,0 0 0 N - 10 -
22.05.2018 14:00:00 18,1 12,8 0 0 N 1014,8 10 0,0
22.05.2018 13:00:00 18,0 13,0 5 3 S - 10 -
22.05.2018 12:00:00 18,0 12,0 9 5 S - 10 -
22.05.2018 11:00:00 17,8 10,4 8 4 S 1014,1 10 -
22.05.2018 10:00:00 17,0 12,0 5 3 S - 10 -
22.05.2018 09:00:00 16,0 10,0 0 0 N - 10 -
22.05.2018 08:00:00 15,0 10,1 4 2 - 1014,5 10 0,0
22.05.2018 07:00:00 13,0 10,0 0 0 N - 10 -
22.05.2018 06:00:00 - - - - - - - -
22.05.2018 05:00:00 11,8 10,4 2 1 WNW 1014,6 - -
22.05.2018 04:00:00 - - - - - - - -
22.05.2018 03:00:00 - - - - - - - -
22.05.2018 02:00:00 13,8 9,9 2 1 N 1014,5 - 0,0
22.05.2018 01:00:00 - - - - - - - -
22.05.2018 00:00:00 - - - - - - - -
21.05.2018 23:00:00 17,6 9,9 0 0 N 1014,2 10 -
21.05.2018 22:00:00 18,0 12,0 4 2 - - 10 -
21.05.2018 21:00:00 21,0 12,0 0 0 N - 10 -
21.05.2018 20:00:00 22,0 11,0 0 0 N 1012,5 10 0,0
21.05.2018 19:00:00 23,0 9,0 5 3 - - 10 -
21.05.2018 18:00:00 23,0 10,0 5 3 - - 10 -
21.05.2018 17:00:00 23,9 7,6 8 4 ESE 1012,2 9 -
21.05.2018 16:00:00 24,0 12,0 9 5 S - 10 -
21.05.2018 15:00:00 23,0 12,0 11 6 S - 10 -
21.05.2018 14:00:00 23,9 7,7 8 4 SE 1013,4 10 0,0
21.05.2018 13:00:00 22,0 9,0 9 5 ESE - 10 -
21.05.2018 12:00:00 22,0 12,0 8 4 - - 10 -
21.05.2018 11:00:00 20,9 11,2 5 3 - 1015,9 10 -
21.05.2018 10:00:00 18,0 12,0 4 2 - - 10 -
21.05.2018 09:00:00 17,0 13,0 2 1 - - 10 -
21.05.2018 08:00:00 15,5 11,4 0 0 N 1018,5 10 0,0
21.05.2018 07:00:00 12,0 12,0 0 0 N - 10 -
21.05.2018 06:00:00 - - - - - - - -
21.05.2018 05:00:00 11,3 11,3 2 1 NE 1019,1 - -
21.05.2018 04:00:00 - - - - - - - -
21.05.2018 03:00:00 - - - - - - - -
21.05.2018 02:00:00 13,0 12,6 5 3 SSE 1019,3 - 0,0
21.05.2018 01:00:00 - - - - - - - -
21.05.2018 00:00:00 - - - - - - - -
20.05.2018 23:00:00 12,3 12,1 0 0 N 1019,2 10 -
20.05.2018 22:00:00 14,0 13,0 2 1 - - 10 -
20.05.2018 21:00:00 16,0 14,0 0 0 N - 10 -
20.05.2018 20:00:00 16,5 13,1 4 2 - 1017,2 10 -
20.05.2018 19:00:00 18,0 13,0 2 1 - - 10 -
20.05.2018 18:00:00 19,0 12,0 4 2 - - 9 -
20.05.2018 17:00:00 19,3 13,2 5 3 - 1016,2 10 -
20.05.2018 16:00:00 21,0 14,0 11 6 S - 10 -
20.05.2018 15:00:00 23,0 12,0 4 2 - - 10 -
20.05.2018 14:00:00 21,8 10,4 5 3 - 1016,3 10 0,0
20.05.2018 13:00:00 20,0 12,0 5 3 - - 10 -
20.05.2018 12:00:00 19,0 12,0 4 2 - - 10 -
20.05.2018 11:00:00 17,6 11,1 4 2 - 1018,7 10 -
20.05.2018 10:00:00 17,0 13,0 2 1 - - 10 -
20.05.2018 09:00:00 15,0 15,0 2 1 - - 10 -
20.05.2018 08:00:00 13,5 13,0 0 0 N 1020,1 10 0,0
20.05.2018 07:00:00 13,0 13,0 0 0 N - 10 -
20.05.2018 06:00:00 - - - - - - - -
20.05.2018 05:00:00 12,6 12,6 2 1 SE 1019,2 - -
20.05.2018 04:00:00 - - - - - - - -
20.05.2018 03:00:00 - - - - - - - -
20.05.2018 02:00:00 14,0 12,9 5 3 N 1019,5 - 0,0
20.05.2018 01:00:00 - - - - - - - -
20.05.2018 00:00:00 - - - - - - - -
19.05.2018 23:00:00 14,1 13,8 0 0 N 1019,5 10 -
19.05.2018 22:00:00 14,0 14,0 0 0 N - 10 -
19.05.2018 21:00:00 15,0 13,0 9 5 NW - 10 -
19.05.2018 20:00:00 15,4 13,3 5 3 - 1018,5 10 -
19.05.2018 19:00:00 15,0 13,0 8 4 - - 10 -
19.05.2018 18:00:00 16,0 15,0 4 2 - - 9 -
19.05.2018 17:00:00 16,9 13,8 5 3 - 1018,0 10 -
19.05.2018 16:00:00 16,0 14,0 5 3 - - 10 -
19.05.2018 15:00:00 15,0 14,0 9 5 SSE - 10 -
19.05.2018 14:00:00 19,2 10,6 8 4 NNW 1016,5 10 0,0
19.05.2018 13:00:00 21,0 9,0 8 4 - - 10 -
19.05.2018 12:00:00 21,0 10,0 5 3 - - 10 -
19.05.2018 11:00:00 19,1 10,6 9 5 NW 1017,3 10 -
19.05.2018 10:00:00 18,0 12,0 9 5 N - 10 -
19.05.2018 09:00:00 16,0 11,0 5 3 - - 10 -
19.05.2018 08:00:00 14,4 12,0 4 2 WNW 1018,6 10 0,0
19.05.2018 07:00:00 14,0 12,0 2 1 - - 10 -
19.05.2018 06:00:00 - - - - - - - -
19.05.2018 05:00:00 13,7 12,0 8 4 NNW 1018,2 - -
19.05.2018 04:00:00 - - - - - - - -
19.05.2018 03:00:00 - - - - - - - -
19.05.2018 02:00:00 15,0 10,1 4 2 S 1017,5 - 0,0
19.05.2018 01:00:00 - - - - - - - -
19.05.2018 00:00:00 - - - - - - - -
18.05.2018 23:00:00 16,7 10,5 4 2 - 1016,9 10 -
18.05.2018 22:00:00 19,0 8,0 5 3 - - 10 -
18.05.2018 21:00:00 20,0 9,0 9 5 SSE - 10 -
18.05.2018 20:00:00 21,0 7,7 11 6 S 1014,4 10 0,0
18.05.2018 19:00:00 21,0 10,0 15 8 S - 10 -
18.05.2018 18:00:00 23,0 8,0 18 10 SSE - 10 -
18.05.2018 17:00:00 23,9 8,3 11 6 S 1012,5 10 -
18.05.2018 16:00:00 26,0 4,0 13 7 S - 10 -
18.05.2018 15:00:00 27,0 6,0 11 6 S - 10 -
18.05.2018 14:00:00 25,8 7,4 5 3 - 1013,1 10 0,0
18.05.2018 13:00:00 23,0 7,0 2 1 - - 10 -
18.05.2018 12:00:00 22,0 7,0 4 2 - - 10 -
18.05.2018 11:00:00 20,1 8,1 4 2 - 1016,3 10 -
18.05.2018 10:00:00 17,0 9,0 2 1 - - 10 -
18.05.2018 09:00:00 16,0 9,0 4 2 - - 10 -
18.05.2018 08:00:00 12,6 10,6 0 0 N 1018,7 10 0,0
18.05.2018 07:00:00 9,0 9,0 2 1 - - 10 -
18.05.2018 06:00:00 - - - - - - - -
18.05.2018 05:00:00 9,6 9,4 2 1 SE 1018,3 - -
18.05.2018 04:00:00 - - - - - - - -
18.05.2018 03:00:00 - - - - - - - -
18.05.2018 02:00:00 11,5 9,5 2 1 SSE 1017,9 - 0,0
18.05.2018 01:00:00 - - - - - - - -
18.05.2018 00:00:00 - - - - - - - -
17.05.2018 23:00:00 13,0 9,4 5 3 - 1017,1 10 -
17.05.2018 22:00:00 16,0 9,0 4 2 - - 10 -
17.05.2018 21:00:00 18,0 9,0 13 7 SE - 10 -
17.05.2018 20:00:00 18,5 9,0 11 6 SSE 1013,9 10 0,0
17.05.2018 19:00:00 20,0 8,0 13 7 SSE - 10 -

tt = Température de l'air
td = dewpoint
ff = Vitesse du vent
dd = Direction du vent
ppp = reduced air pressure
vv = visibility
rr = Quantités de précipitations

stations d'obs. à proximité